Date String (YYYY-MM-DD hh:mm:ss) UTC,Instrument flags,absolute air pressure of the measurement (hPa),sample flow rate (lpm),inlet stack bypass flow (lpm),air temperature of the measurement (°C),ambient temperature measured by the external sensor (°C),aerosol sample conditioner tube jacket temperature (°C),OPC LED temperature (°C),internal box temperature (°C),relative humidity of the measurement (%),span deviation,mass concentration of particles derived from Lorenz-Mie calculation of OPC scattering (μg/m³),mass concentration of particles derived from Lorenz-Mie calculation of OPC scattering (μg/m³),mass concentration of particles derived from Lorenz-Mie calculation of OPC scattering (μg/m³)
DateTimeUTC,F1_M11,P_M11,Q1_M11,Q2_M11,T1_M11,T2_M11,T3_M11,T4_M11,T5_M11,U1_M11,ZSPAN_M11,X0_M11,X2_M11,X1_M11
2023-10-23 15:00:00,SystemResetWarning,0823.9,5.00,000.00,029.1,027.7,000.0,037.4,030.7,12.8,0000.0,0010.31,0004.76,0003.88
2023-10-23 15:01:00,SystemResetWarning,0824.0,5.00,000.00,029.1,027.8,000.0,037.4,030.7,12.8,0000.0,0011.57,0004.78,0003.87
2023-10-23 15:02:00,SystemResetWarning,0824.0,5.00,000.00,029.1,027.8,000.0,037.4,030.7,12.8,0000.0,0011.62,0004.78,0003.86
2023-10-23 15:03:00,SystemResetWarning,0824.0,5.00,000.00,029.1,027.8,000.0,037.5,030.7,13.0,0000.0,0012.11,0004.77,0003.85
2023-10-23 15:04:00,SystemResetWarning,0824.0,5.01,000.00,029.1,027.8,000.0,037.5,030.7,13.1,0000.0,0012.73,0004.77,0003.84
2023-10-23 15:05:00,SystemResetWarning,0824.0,4.99,000.00,029.1,027.8,000.0,037.5,030.8,13.1,0000.0,0013.01,0004.81,0003.84
2023-10-23 15:06:00,SystemResetWarning,0824.0,4.99,000.00,029.2,027.9,000.0,037.5,030.7,13.2,0000.0,0014.76,0005.02,0003.85
2023-10-23 15:07:00,SystemResetWarning,0823.9,5.00,000.00,029.2,027.9,000.0,037.5,030.8,13.3,0000.0,0016.22,0005.19,0003.86
2023-10-23 15:08:00,SystemResetWarning,0824.0,5.00,000.00,029.2,027.9,000.0,037.5,030.8,13.2,0000.0,0016.41,0005.29,0003.86
2023-10-23 15:09:00,SystemResetWarning,0824.0,5.01,000.00,029.2,027.9,000.0,037.5,030.8,13.1,0000.0,0016.53,0005.36,0003.88
2023-10-23 15:10:00,SystemResetWarning,0824.0,5.01,000.00,029.2,027.9,000.0,037.5,030.8,13.1,0000.0,0016.57,0005.36,0003.88
2023-10-23 15:11:00,SystemResetWarning,0824.0,5.00,000.00,029.2,028.0,000.0,037.6,030.8,13.0,0000.0,0016.70,0005.39,0003.88
2023-10-23 15:12:00,SystemResetWarning,0824.0,5.01,000.00,029.3,028.0,000.0,037.6,030.8,13.0,0000.0,0015.21,0005.41,0003.87
2023-10-23 15:13:00,SystemResetWarning,0824.0,5.00,000.00,029.3,028.0,000.0,037.6,030.8,12.7,0000.0,0015.41,0005.39,0003.87
2023-10-23 15:14:00,SystemResetWarning,0824.0,4.99,000.00,029.3,028.0,000.0,037.6,030.9,12.5,0000.0,0015.96,0005.47,0003.87
2023-10-23 15:15:00,SystemResetWarning,0824.0,5.00,000.00,029.3,028.0,000.0,037.6,030.9,12.4,0000.0,0015.65,0005.51,0003.87
2023-10-23 15:16:00,SystemResetWarning,0824.0,5.01,000.00,029.3,028.1,000.0,037.6,030.9,12.3,0000.0,0015.46,0005.52,0003.87
2023-10-23 15:17:00,SystemResetWarning,0824.0,5.01,000.00,029.3,028.1,000.0,037.6,030.9,12.3,0000.0,0014.29,0005.40,0003.87
2023-10-23 15:18:00,SystemResetWarning,0824.0,5.00,000.00,029.3,028.1,000.0,037.7,030.9,12.1,0000.0,0013.33,0005.22,0003.86
2023-10-23 15:19:00,SystemResetWarning,0824.0,4.99,000.00,029.4,028.1,000.0,037.7,030.9,11.9,0000.0,0013.62,0005.18,0003.87
2023-10-23 15:20:00,SystemResetWarning,0824.1,5.01,000.00,029.4,028.1,000.0,037.7,031.0,12.0,0000.0,0013.25,0005.12,0003.87
2023-10-23 15:21:00,SystemResetWarning,0824.2,5.01,000.00,029.4,028.2,000.0,037.7,031.0,12.0,0000.0,0013.53,0005.12,0003.87
2023-10-23 15:22:00,SystemResetWarning,0824.2,5.01,000.00,029.4,028.2,000.0,037.7,031.0,12.1,0000.0,0013.68,0005.15,0003.87
2023-10-23 15:23:00,SystemResetWarning,0824.1,4.99,000.00,029.4,028.2,000.0,037.7,031.0,12.1,0000.0,0014.48,0005.28,0003.88
2023-10-23 15:24:00,SystemResetWarning,0824.1,4.99,000.00,029.4,028.2,000.0,037.8,031.0,12.1,0000.0,0014.67,0005.34,0003.91
2023-10-23 15:25:00,SystemResetWarning,0824.0,5.00,000.00,029.5,028.2,000.0,037.8,031.0,11.9,0000.0,0014.80,0005.31,0003.94
2023-10-23 15:26:00,SystemResetWarning,0824.0,5.01,000.00,029.5,028.3,000.0,037.8,031.1,11.8,0000.0,0015.30,0005.41,0003.97
2023-10-23 15:27:00,SystemResetWarning,0824.0,5.01,000.00,029.5,028.3,000.0,037.8,031.1,11.9,0000.0,0015.62,0005.47,0003.99
2023-10-23 15:28:00,SystemResetWarning,0824.0,5.00,000.00,029.5,028.3,000.0,037.8,031.1,11.8,0000.0,0016.33,0005.53,0004.00
2023-10-23 15:29:00,SystemResetWarning,0824.0,4.98,000.00,029.5,028.3,000.0,037.8,031.1,11.7,0000.0,0016.54,0005.57,0004.02
2023-10-23 15:30:00,SystemResetWarning,0824.0,5.00,000.00,029.5,028.3,000.0,037.9,031.1,11.9,0000.0,0016.61,0005.65,0004.03
2023-10-23 15:31:00,SystemResetWarning,0824.0,5.00,000.00,029.6,028.4,000.0,037.9,031.2,11.6,0000.0,0018.68,0005.70,0004.06
2023-10-23 15:32:00,SystemResetWarning,0824.0,5.00,000.00,029.6,028.4,000.0,037.9,031.2,11.6,0000.0,0019.60,0005.74,0004.09
2023-10-23 15:33:00,SystemResetWarning,0824.0,5.01,000.00,029.6,028.4,000.0,037.9,031.2,12.2,0000.0,0019.43,0005.70,0004.12
2023-10-23 15:34:00,SystemResetWarning,0824.0,5.01,000.00,029.6,028.4,000.0,037.9,031.2,11.9,0000.0,0018.50,0005.57,0004.13
2023-10-23 15:35:00,SystemResetWarning,0824.0,5.00,000.00,029.6,028.4,000.0,037.9,031.2,12.0,0000.0,0017.93,0005.46,0004.12
2023-10-23 15:36:00,SystemResetWarning,0824.0,4.98,000.00,029.6,028.5,000.0,037.9,031.2,13.3,0000.0,0017.27,0005.47,0004.11
2023-10-23 15:37:00,SystemResetWarning,0823.9,5.02,000.00,029.7,028.5,000.0,038.0,031.2,13.0,0000.0,0016.43,0005.38,0004.10
2023-10-23 15:38:00,SystemResetWarning,0824.0,5.00,000.00,029.7,028.5,000.0,038.0,031.2,12.3,-000.2,0016.01,0005.31,0004.10
2023-10-23 15:39:00,SystemResetWarning,0824.0,4.99,000.00,029.7,028.5,000.0,038.0,031.3,11.9,0000.0,0015.46,0005.22,0004.09
2023-10-23 15:40:00,SystemResetWarning,0824.0,5.00,000.00,029.7,028.5,000.0,038.0,031.3,12.8,0000.0,0014.61,0005.19,0004.08
2023-10-23 15:41:00,SystemResetWarning,0824.0,5.00,000.00,029.7,028.6,000.0,038.0,031.3,12.8,0000.0,0014.11,0005.12,0004.07
2023-10-23 15:42:00,SystemResetWarning,0824.0,5.00,000.00,029.8,028.0,000.0,038.0,031.4,12.7,0000.0,0012.57,0005.01,0004.05
2023-10-23 15:43:00,SystemResetWarning,0824.0,5.00,000.00,029.7,026.0,000.0,038.0,031.1,12.9,0000.0,0011.02,0004.95,0004.04
2023-10-23 15:44:00,SystemResetWarning,0824.0,5.00,000.00,029.5,024.8,000.0,037.9,030.9,13.2,0000.0,0010.77,0004.97,0004.04
2023-10-23 15:45:00,SystemResetWarning,0824.0,5.02,000.00,029.4,024.9,000.0,037.8,030.8,13.2,0000.0,0010.96,0004.99,0004.03
2023-10-23 15:46:00,SystemResetWarning,0823.9,5.00,000.00,029.3,025.2,000.0,037.8,030.5,13.3,0000.0,0011.04,0005.01,0004.03
2023-10-23 15:47:00,SystemResetWarning,0823.9,4.99,000.00,029.2,025.6,000.0,037.8,030.5,13.1,0000.0,0011.49,0005.05,0004.03
2023-10-23 15:48:00,SystemResetWarning,0823.9,5.00,000.00,029.2,026.0,000.0,037.8,030.5,13.1,0000.0,0011.63,0005.10,0004.02
2023-10-23 15:49:00,SystemResetWarning,0823.9,5.00,000.00,029.1,026.3,000.0,037.8,030.5,13.2,0000.0,0011.73,0005.18,0004.01
2023-10-23 15:50:00,SystemResetWarning,0823.9,5.00,000.00,029.1,026.6,000.0,037.8,030.6,13.1,0000.0,0012.22,0005.24,0004.01
2023-10-23 15:51:00,SystemResetWarning,0823.8,5.00,000.00,029.1,026.9,000.0,037.7,030.7,12.9,0000.0,0012.46,0005.32,0004.02
2023-10-23 15:52:00,SystemResetWarning,0823.8,5.00,000.00,029.1,027.1,000.0,037.7,030.7,13.0,0000.0,0012.70,0005.35,0004.02
2023-10-23 15:53:00,SystemResetWarning,0823.9,5.00,000.00,029.1,027.3,000.0,037.7,030.7,13.3,0000.0,0013.23,0005.43,0004.01
2023-10-23 15:54:00,SystemResetWarning,0823.8,5.00,000.00,029.1,027.5,000.0,037.7,030.7,13.1,0000.0,0014.04,0005.43,0003.99
2023-10-23 15:55:00,SystemResetWarning,0823.8,5.00,000.00,029.2,027.6,000.0,037.7,030.7,13.3,0000.0,0013.84,0005.41,0003.98
2023-10-23 15:56:00,SystemResetWarning,0823.9,5.00,000.00,029.2,027.7,000.0,037.7,030.8,13.3,0000.0,0014.24,0005.36,0003.97
2023-10-23 15:57:00,SystemResetWarning,0823.9,5.00,000.00,029.2,027.8,000.0,037.7,030.8,13.1,0000.0,0014.20,0005.33,0003.95
2023-10-23 15:58:00,SystemResetWarning,0823.9,5.00,000.00,029.2,027.9,000.0,037.7,030.8,13.2,0000.0,0013.56,0005.25,0003.93
2023-10-23 15:59:00,SystemResetWarning,0823.9,5.00,000.00,029.3,027.9,000.0,037.7,030.9,13.2,0000.0,0013.46,0005.17,0003.92
